| time (UTC) | temp C | wind direction | speed KPH | gust KPH | rain 1hr cm | rain 24hr cm | rain mn cm | humidity % | barometer mb |
| 20260902213053 | 27 | 168 | 16.1 | 27.4 | 0.00 | 0.00 | 0.00 | 27 | 1003.9 |
| 20260902211553 | 27 | 204 | 17.7 | 30.6 | 0.00 | 0.00 | 0.00 | 27 | 1004.1 |
| 20260902210044 | 26 | 208 | 8.0 | 29.0 | 0.00 | 0.00 | 0.00 | 28 | 1004.6 |
| 20260902204545 | 26 | 183 | 14.5 | 25.7 | 0.00 | 0.00 | 0.00 | 30 | 1005.0 |
| 20260902203046 | 26 | 187 | 16.1 | 29.0 | 0.00 | 0.00 | 0.00 | 30 | 1005.2 |
| 20260902201543 | 26 | 129 | 9.7 | 24.1 | 0.00 | 0.00 | 0.00 | 30 | 1005.3 |
| 20260902200044 | 25 | 182 | 11.3 | 24.1 | 0.00 | 0.00 | 0.00 | 32 | 1005.5 |
| 20260902194544 | 25 | 170 | 19.3 | 27.4 | 0.00 | 0.00 | 0.00 | 33 | 1005.7 |
| 20260902193048 | 25 | 189 | 16.1 | 24.1 | 0.00 | 0.00 | 0.00 | 34 | 1005.7 |
| 20260902191545 | 25 | 223 | 22.5 | 32.2 | 0.00 | 0.00 | 0.00 | 34 | 1005.8 |
| 20260902190046 | 25 | 178 | 12.9 | 30.6 | 0.00 | 0.00 | 0.00 | 36 | 1005.8 |
| 20260902184552 | 24 | 183 | 12.9 | 30.6 | 0.00 | 0.00 | 0.00 | 37 | 1006.1 |
| 20260902183047 | 23 | 177 | 14.5 | 25.7 | 0.00 | 0.00 | 0.00 | 39 | 1006.5 |
| 20260902181546 | 22 | 195 | 19.3 | 29.0 | 0.00 | 0.00 | 0.00 | 39 | 1006.7 |
| 20260902180103 | 22 | 182 | 17.7 | 30.6 | 0.00 | 0.00 | 0.00 | 40 | 1006.7 |
| 20260902174544 | 22 | 169 | 24.1 | 37.0 | 0.00 | 0.00 | 0.00 | 41 | 1006.8 |
| 20260902173050 | 21 | 191 | 25.7 | 37.0 | 0.00 | 0.00 | 0.00 | 41 | 1007.0 |
| 20260902171548 | 21 | 195 | 19.3 | 29.0 | 0.00 | 0.00 | 0.00 | 42 | 1006.9 |
| 20260902170044 | 21 | 187 | 16.1 | 25.7 | 0.00 | 0.00 | 0.00 | 42 | 1006.7 |
| 20260902164545 | 21 | 187 | 14.5 | 24.1 | 0.00 | 0.00 | 0.00 | 42 | 1006.6 |
| 20260902163056 | 21 | 202 | 14.5 | 22.5 | 0.00 | 0.00 | 0.00 | 42 | 1006.7 |
| 20260902161553 | 21 | 183 | 12.9 | 22.5 | 0.00 | 0.00 | 0.00 | 45 | 1007.0 |
| 20260902160042 | 20 | 207 | 16.1 | 22.5 | 0.00 | 0.00 | 0.00 | 46 | 1007.3 |
| 20260902154543 | 19 | 207 | 11.3 | 20.9 | 0.00 | 0.00 | 0.00 | 48 | 1007.1 |
| 20260902153045 | 17 | 204 | 11.3 | 17.7 | 0.00 | 0.00 | 0.00 | 50 | 1007.2 |
| 20260902151544 | 17 | 194 | 8.0 | 12.9 | 0.00 | 0.00 | 0.00 | 50 | 1007.5 |
| 20260902150043 | 16 | 209 | 8.0 | 12.9 | 0.00 | 0.00 | 0.00 | 51 | 1007.7 |
| 20260902144542 | 16 | 192 | 8.0 | 12.9 | 0.00 | 0.00 | 0.00 | 52 | 1007.9 |
| 20260902143046 | 16 | 206 | 8.0 | 12.9 | 0.00 | 0.00 | 0.00 | 54 | 1008.0 |
| 20260902141543 | 15 | 183 | 6.4 | 12.9 | 0.00 | 0.00 | 0.00 | 55 | 1008.2 |
| 20260902140043 | 15 | 159 | 3.2 | 11.3 | 0.00 | 0.00 | 0.00 | 58 | 1008.2 |
| 20260902134548 | 13 | 266 | 1.6 | 4.8 | 0.00 | 0.00 | 0.00 | 61 | 1007.9 |
| 20260902133044 | 13 | 264 | 3.2 | 6.4 | 0.00 | 0.00 | 0.00 | 62 | 1007.6 |
| 20260902131545 | 12 | 211 | 8.0 | 17.7 | 0.00 | 0.00 | 0.00 | 63 | 1007.5 |
| 20260902130046 | 12 | 190 | 11.3 | 19.3 | 0.00 | 0.00 | 0.00 | 63 | 1007.5 |
| 20260902124548 | 12 | 236 | 6.4 | 11.3 | 0.00 | 0.00 | 0.00 | 62 | 1006.9 |
| 20260902123054 | 12 | 283 | 6.4 | 11.3 | 0.00 | 0.00 | 0.00 | 62 | 1006.9 |
| 20260902121540 | 12 | 268 | 8.0 | 11.3 | 0.00 | 0.00 | 0.00 | 62 | 1007.3 |
| 20260902120043 | 11 | 270 | 8.0 | 11.3 | 0.00 | 0.00 | 0.00 | 64 | 1007.6 |
| 20260902114546 | 11 | 247 | 3.2 | 8.0 | 0.00 | 0.00 | 0.00 | 66 | 1008.0 |
| 20260902113047 | 11 | 245 | 3.2 | 11.3 | 0.00 | 0.00 | 0.00 | 66 | 1008.3 |
| 20260902111548 | 11 | 238 | 4.8 | 11.3 | 0.00 | 0.00 | 0.00 | 64 | 1008.6 |
| 20260902110047 | 11 | 229 | 8.0 | 12.9 | 0.00 | 0.00 | 0.00 | 65 | 1008.4 |
| 20260902104553 | 11 | 59 | 3.2 | 6.4 | 0.00 | 0.00 | 0.00 | 66 | 1008.2 |
| 20260902103045 | 10 | 58 | 3.2 | 6.4 | 0.00 | 0.00 | 0.00 | 65 | 1007.8 |
| 20260902101542 | 11 | 58 | 3.2 | 8.0 | 0.00 | 0.00 | 0.00 | 64 | 1008.0 |
| 20260902100057 | 11 | 96 | 6.4 | 9.7 | 0.00 | 0.00 | 0.00 | 61 | 1008.0 |
| 20260902094546 | 12 | 80 | 4.8 | 8.0 | 0.00 | 0.00 | 0.00 | 58 | 1007.8 |
| 20260902093046 | 12 | 25 | 3.2 | 8.0 | 0.00 | 0.00 | 0.00 | 58 | 1008.0 |
| 20260902091539 | 13 | 64 | 3.2 | 6.4 | 0.00 | 0.00 | 0.00 | 56 | 1008.2 |
| 20260902090045 | 14 | 68 | 3.2 | 6.4 | 0.00 | 0.00 | 0.00 | 53 | 1008.4 |
| 20260902084557 | 15 | 35 | 3.2 | 6.4 | 0.00 | 0.00 | 0.00 | 51 | 1008.7 |
| 20260902083046 | 16 | 84 | 1.6 | 4.8 | 0.00 | 0.00 | 0.00 | 48 | 1008.8 |
| 20260902081559 | 16 | 88 | 3.2 | 6.4 | 0.00 | 0.00 | 0.00 | 47 | 1008.7 |
| 20260902080044 | 17 | 40 | 4.8 | 12.9 | 0.00 | 0.00 | 0.00 | 44 | 1008.8 |
| 20260902074543 | 17 | 189 | 6.4 | 17.7 | 0.00 | 0.00 | 0.00 | 45 | 1008.8 |
| 20260902073051 | 17 | 94 | 3.2 | 6.4 | 0.00 | 0.00 | 0.00 | 44 | 1008.8 |
| 20260902071544 | 17 | 252 | 0.0 | 4.8 | 0.00 | 0.00 | 0.00 | 43 | 1008.8 |
| 20260902070046 | 17 | 252 | 1.6 | 4.8 | 0.00 | 0.00 | 0.00 | 43 | 1008.7 |
| 20260902064549 | 18 | 252 | 3.2 | 8.0 | 0.00 | 0.00 | 0.00 | 41 | 1008.9 |
| 20260902063050 | 19 | 252 | 1.6 | 17.7 | 0.00 | 0.00 | 0.00 | 39 | 1008.9 |
| 20260902060044 | 20 | 176 | 11.3 | 24.1 | 0.00 | 0.00 | 0.00 | 37 | 1008.9 |
| 20260902054549 | 20 | 166 | 14.5 | 29.0 | 0.00 | 0.00 | 0.00 | 37 | 1008.8 |
| 20260902053046 | 20 | 144 | 16.1 | 27.4 | 0.00 | 0.00 | 0.00 | 36 | 1008.9 |
| 20260902051545 | 20 | 133 | 16.1 | 27.4 | 0.00 | 0.00 | 0.00 | 36 | 1008.9 |
| 20260902050050 | 20 | 106 | 17.7 | 30.6 | 0.00 | 0.00 | 0.00 | 37 | 1009.0 |
| 20260902044544 | 21 | 122 | 12.9 | 25.7 | 0.00 | 0.00 | 0.00 | 36 | 1009.1 |
| 20260902043042 | 21 | 104 | 11.3 | 22.5 | 0.00 | 0.00 | 0.00 | 36 | 1009.1 |
| 20260902041544 | 21 | 95 | 9.7 | 20.9 | 0.00 | 0.00 | 0.00 | 36 | 1009.1 |
| 20260902040046 | 21 | 109 | 11.3 | 22.5 | 0.00 | 0.00 | 0.00 | 36 | 1009.2 |
| 20260902034541 | 21 | 138 | 11.3 | 22.5 | 0.00 | 0.00 | 0.00 | 36 | 1009.3 |
| 20260902033045 | 20 | 112 | 12.9 | 19.3 | 0.00 | 0.00 | 0.00 | 35 | 1009.3 |
| 20260902031548 | 20 | 110 | 11.3 | 19.3 | 0.00 | 0.00 | 0.00 | 35 | 1009.4 |
| 20260902030042 | 18 | 105 | 6.4 | 12.9 | 0.00 | 0.00 | 0.00 | 36 | 1009.4 |
| 20260902024543 | 19 | 62 | 3.2 | 6.4 | 0.00 | 0.00 | 0.00 | 34 | 1009.3 |
| 20260902023052 | 21 | 60 | 4.8 | 8.0 | 0.00 | 0.00 | 0.00 | 30 | 1009.4 |
| 20260902021544 | 23 | 105 | 1.6 | 9.7 | 0.00 | 0.00 | 0.00 | 25 | 1009.3 |
| 20260902020043 | 25 | 145 | 1.6 | 6.4 | 0.00 | 0.00 | 0.00 | 24 | 1009.3 |
| 20260902014548 | 25 | 134 | 1.6 | 8.0 | 0.00 | 0.00 | 0.00 | 23 | 1009.3 |
| 20260902013043 | 26 | 101 | 3.2 | 9.7 | 0.00 | 0.00 | 0.00 | 22 | 1009.1 |
| 20260902011550 | 26 | 116 | 6.4 | 14.5 | 0.00 | 0.00 | 0.00 | 22 | 1009.3 |
| 20260902010050 | 26 | 107 | 6.4 | 17.7 | 0.00 | 0.00 | 0.00 | 22 | 1009.3 |
| 20260902004544 | 27 | 127 | 11.3 | 20.9 | 0.00 | 0.00 | 0.00 | 21 | 1009.1 |
| 20260902003048 | 27 | 121 | 11.3 | 20.9 | 0.00 | 0.00 | 0.00 | 21 | 1009.1 |
| 20260902001544 | 27 | 110 | 8.0 | 17.7 | 0.00 | 0.00 | 0.00 | 21 | 1009.4 |
| 20260902000047 | 27 | 89 | 6.4 | 14.5 | 0.00 | 0.00 | 0.00 | 21 | 1009.3 |
| 20260901234543 | 27 | 171 | 4.8 | 20.9 | 0.00 | 0.00 | 0.00 | 21 | 1009.4 |
| 20260901233042 | 28 | 186 | 16.1 | 22.5 | 0.00 | 0.00 | 0.00 | 20 | 1009.5 |
| 20260901231541 | 27 | 170 | 4.8 | 22.5 | 0.00 | 0.00 | 0.00 | 22 | 1009.6 |
| 20260901230043 | 27 | 182 | 16.1 | 27.4 | 0.00 | 0.00 | 0.00 | 21 | 1009.8 |
| 20260901224544 | 27 | 220 | 16.1 | 27.4 | 0.00 | 0.00 | 0.00 | 20 | 1010.0 |
| 20260901223046 | 27 | 138 | 12.9 | 30.6 | 0.00 | 0.00 | 0.00 | 21 | 1010.1 |
| 20260901221555 | 27 | 173 | 17.7 | 25.7 | 0.00 | 0.00 | 0.00 | 21 | 1010.2 |
| 20260901220044 | 27 | 127 | 11.3 | 22.5 | 0.00 | 0.00 | 0.00 | 21 | 1010.4 |
| 20260901214557 | 27 | 171 | 6.4 | 19.3 | 0.00 | 0.00 | 0.00 | 21 | 1010.6 |